Location: Newark
(34.3481°N, 134.0494°E)
Time: 01:14:25
(UTC+00:00)

Vanguard 3 - Pass Details

Date: 18 January 2020
Orbit: 508 x 3263 km, 33.3° (Epoch: 21 February)

Event Time Altitude Azimuth Distance (km) Brightness Sun altitude
Rises 11:53:29 0° 257° (WSW) 7,078 12.7 -43.9°
Reaches altitude 10° 11:58:37 10° 257° (WSW) 5,846 12.0 -45.0°
Enters shadow 12:13:05 66° 246° (WSW) 2,405 9.3 -48.0°
